When you browse on this site, cookies collect data to enhance your experience and personalize the content and advertising you see.
Visit our Privacy Policy to learn more. By continuing to use the site, you agree to this use of cookies and data.
  • In Portugal
  • List of Countries
  • For 7 days
  • Water Temperature
  • Satellite Maps
  • Weather Map
  • Weather Widgets
  • user-avatar
    Login

    Hourly Weather Djelfa

    Today, 21 March, Thursday

    Time Temperature Precipitation Wind Pressure Humidity
    00:00 -1°C° 0 mm 7 mps 664 mmHg 83%
    01:00 -1°C° 0 mm 7 mps 664 mmHg 85%
    02:00 -2°C° 0 mm 8 mps 663 mmHg 88%
    03:00 -2°C° 0 mm 8 mps 663 mmHg 91%
    04:00 -2°C° 0 mm 8 mps 663 mmHg 90%
    05:00 -3°C° 0 mm 9 mps 663 mmHg 90%
    06:00 -3°C° 0 mm 9 mps 662 mmHg 87%
    07:00 -2°C° 0.2 mm 10 mps 662 mmHg 85%
    08:00 0°C° 0.2 mm 10 mps 662 mmHg 82%
    09:00 +1°C° 0.2 mm 10 mps 662 mmHg 79%
    10:00 +2°C° 0.3 mm 11 mps 662 mmHg 76%
    11:00 +3°C° 0.3 mm 12 mps 662 mmHg 72%
    12:00 +4°C° 0 mm 13 mps 662 mmHg 74%
    13:00 +4°C° 0.8 mm 12 mps 661 mmHg 74%
    14:00 +4°C° 0.8 mm 12 mps 661 mmHg 74%
    15:00 +6°C° 0.8 mm 11 mps 661 mmHg 75%
    16:00 +6°C° 0.4 mm 11 mps 661 mmHg 76%
    17:00 +6°C° 0.4 mm 10 mps 662 mmHg 77%
    18:00 +5°C° 0.4 mm 10 mps 662 mmHg 78%
    19:00 +5°C° 0 mm 10 mps 662 mmHg 81%
    20:00 +5°C° 0 mm 9 mps 663 mmHg 84%
    21:00 +3°C° 0 mm 9 mps 663 mmHg 87%
    22:00 +3°C° 0 mm 9 mps 663 mmHg 88%
    23:00 +3°C° 0 mm 9 mps 663 mmHg 89%

    Tomorrow, 22 March, Friday

    Time Temperature Precipitation Wind Pressure Humidity
    00:00 +3°C° 0 mm 9 mps 663 mmHg 90%
    01:00 +3°C° 0 mm 9 mps 663 mmHg 90%
    02:00 +2°C° 0 mm 9 mps 663 mmHg 91%
    03:00 +2°C° 0 mm 9 mps 663 mmHg 91%
    04:00 +2°C° 0 mm 9 mps 663 mmHg 92%
    05:00 +2°C° 0 mm 8 mps 663 mmHg 92%
    06:00 +2°C° 0 mm 8 mps 663 mmHg 92%
    07:00 +4°C° 0 mm 8 mps 664 mmHg 89%
    08:00 +4°C° 0 mm 8 mps 664 mmHg 85%
    09:00 +5°C° 0 mm 8 mps 664 mmHg 82%
    10:00 +5°C° 0 mm 8 mps 664 mmHg 78%
    11:00 +6°C° 0 mm 8 mps 664 mmHg 74%
    12:00 +7°C° 0 mm 8 mps 665 mmHg 70%
    13:00 +7°C° 0 mm 9 mps 664 mmHg 67%
    14:00 +8°C° 0 mm 9 mps 664 mmHg 64%
    15:00 +9°C° 0 mm 10 mps 664 mmHg 61%
    16:00 +8°C° 0.1 mm 9 mps 664 mmHg 65%
    17:00 +7°C° 0.1 mm 9 mps 664 mmHg 68%
    18:00 +6°C° 0.1 mm 8 mps 664 mmHg 72%
    19:00 +6°C° 0 mm 8 mps 665 mmHg 76%
    20:00 +5°C° 0 mm 7 mps 665 mmHg 81%
    21:00 +5°C° 0 mm 6 mps 666 mmHg 86%
    22:00 +4°C° 0 mm 6 mps 666 mmHg 87%
    23:00 +5°C° 0 mm 5 mps 666 mmHg 89%

    Day after tomorrow, 23 March, Saturday

    Time Temperature Precipitation Wind Pressure Humidity
    00:00 +5°C° 0 mm 5 mps 666 mmHg 90%
    01:00 +3°C° 0 mm 5 mps 665 mmHg 91%
    02:00 +3°C° 0 mm 5 mps 665 mmHg 93%
    03:00 +2°C° 0 mm 5 mps 665 mmHg 94%
    04:00 +2°C° 0 mm 5 mps 665 mmHg 94%
    05:00 +3°C° 0 mm 4 mps 665 mmHg 94%
    06:00 +3°C° 0 mm 4 mps 665 mmHg 94%
    07:00 +4°C° 0 mm 4 mps 666 mmHg 83%
    08:00 +5°C° 0 mm 5 mps 666 mmHg 72%
    09:00 +7°C° 0 mm 5 mps 666 mmHg 62%
    10:00 +8°C° 0 mm 5 mps 667 mmHg 58%
    11:00 +10°C° 0 mm 4 mps 667 mmHg 54%
    12:00 +12°C° 0 mm 4 mps 667 mmHg 51%
    13:00 +12°C° 0 mm 4 mps 667 mmHg 50%
    14:00 +12°C° 0 mm 4 mps 666 mmHg 48%
    15:00 +13°C° 0 mm 4 mps 666 mmHg 47%
    16:00 +12°C° 0 mm 4 mps 666 mmHg 49%
    17:00 +12°C° 0 mm 4 mps 666 mmHg 51%
    18:00 +11°C° 0 mm 4 mps 666 mmHg 53%
    19:00 +11°C° 0 mm 4 mps 666 mmHg 57%
    20:00 +10°C° 0 mm 4 mps 667 mmHg 60%
    21:00 +8°C° 0 mm 4 mps 667 mmHg 63%
    22:00 +8°C° 0 mm 4 mps 667 mmHg 66%
    23:00 +8°C° 0 mm 3 mps 667 mmHg 70%

    24 March, Sunday

    Time Temperature Precipitation Wind Pressure Humidity
    00:00 +8°C° 0 mm 3 mps 667 mmHg 73%
    01:00 +8°C° 0 mm 3 mps 667 mmHg 72%
    02:00 +6°C° 0 mm 4 mps 667 mmHg 71%
    03:00 +6°C° 0 mm 4 mps 667 mmHg 70%
    04:00 +6°C° 0 mm 4 mps 667 mmHg 74%
    05:00 +5°C° 0 mm 5 mps 667 mmHg 78%
    06:00 +5°C° 0 mm 5 mps 667 mmHg 82%
    07:00 +6°C° 0 mm 5 mps 668 mmHg 76%
    08:00 +7°C° 0 mm 5 mps 668 mmHg 69%
    09:00 +8°C° 0 mm 5 mps 668 mmHg 63%
    10:00 +10°C° 0 mm 5 mps 669 mmHg 55%
    11:00 +12°C° 0 mm 5 mps 669 mmHg 48%
    12:00 +13°C° 0 mm 6 mps 669 mmHg 40%
    13:00 +14°C° 0 mm 6 mps 668 mmHg 39%
    14:00 +14°C° 0 mm 6 mps 668 mmHg 38%
    15:00 +14°C° 0 mm 6 mps 667 mmHg 37%
    16:00 +13°C° 0 mm 6 mps 667 mmHg 41%
    17:00 +12°C° 0 mm 5 mps 667 mmHg 44%
    18:00 +12°C° 0 mm 5 mps 667 mmHg 47%
    19:00 +10°C° 0 mm 5 mps 667 mmHg 50%
    20:00 +9°C° 0 mm 6 mps 668 mmHg 53%
    21:00 +8°C° 0 mm 6 mps 668 mmHg 56%
    22:00 +8°C° 0 mm 5 mps 668 mmHg 59%
    23:00 +7°C° 0 mm 5 mps 668 mmHg 61%

    25 March, Monday

    Time Temperature Precipitation Wind Pressure Humidity
    00:00 +7°C° 0 mm 4 mps 667 mmHg 64%
    01:00 +6°C° 0 mm 4 mps 667 mmHg 66%
    02:00 +6°C° 0 mm 4 mps 667 mmHg 68%
    03:00 +5°C° 0 mm 3 mps 667 mmHg 70%
    04:00 +5°C° 0 mm 3 mps 667 mmHg 72%
    05:00 +5°C° 0 mm 3 mps 666 mmHg 73%
    06:00 +5°C° 0 mm 2 mps 666 mmHg 74%
    07:00 +7°C° 0 mm 3 mps 667 mmHg 65%
    08:00 +8°C° 0 mm 4 mps 668 mmHg 56%
    09:00 +10°C° 0 mm 5 mps 668 mmHg 48%
    10:00 +12°C° 0 mm 5 mps 668 mmHg 44%
    11:00 +13°C° 0 mm 5 mps 668 mmHg 40%
    12:00 +14°C° 0 mm 5 mps 668 mmHg 36%
    13:00 +15°C° 0 mm 5 mps 668 mmHg 35%
    14:00 +15°C° 0 mm 5 mps 667 mmHg 33%
    15:00 +17°C° 0 mm 4 mps 667 mmHg 32%
    16:00 +15°C° 0 mm 4 mps 666 mmHg 35%
    17:00 +14°C° 0 mm 4 mps 666 mmHg 37%
    18:00 +14°C° 0 mm 4 mps 666 mmHg 40%
    19:00 +13°C° 0 mm 4 mps 666 mmHg 44%
    20:00 +12°C° 0 mm 5 mps 667 mmHg 47%
    21:00 +10°C° 0 mm 5 mps 667 mmHg 51%
    22:00 +10°C° 0 mm 5 mps 667 mmHg 53%
    23:00 +10°C° 0 mm 4 mps 667 mmHg 55%

    26 March, Tuesday

    Time Temperature Precipitation Wind Pressure Humidity
    00:00 +10°C° 0 mm 4 mps 667 mmHg 56%
    01:00 +9°C° 0 mm 3 mps 666 mmHg 58%
    02:00 +9°C° 0 mm 3 mps 666 mmHg 60%
    03:00 +8°C° 0 mm 2 mps 665 mmHg 62%
    04:00 +9°C° 0 mm 1 mps 665 mmHg 63%
    05:00 +8°C° 0 mm 1 mps 665 mmHg 64%
    06:00 +8°C° 0 mm 1 mps 665 mmHg 65%
    07:00 +10°C° 0 mm 1 mps 666 mmHg 55%
    08:00 +13°C° 0 mm 2 mps 667 mmHg 46%
    09:00 +14°C° 0 mm 3 mps 667 mmHg 36%
    10:00 +16°C° 0 mm 3 mps 667 mmHg 33%
    11:00 +18°C° 0 mm 3 mps 667 mmHg 30%
    12:00 +19°C° 0 mm 4 mps 667 mmHg 27%
    13:00 +19°C° 0 mm 4 mps 667 mmHg 26%
    14:00 +20°C° 0 mm 4 mps 667 mmHg 25%
    15:00 +20°C° 0 mm 4 mps 666 mmHg 24%
    16:00 +19°C° 0 mm 4 mps 666 mmHg 25%
    17:00 +17°C° 0 mm 5 mps 666 mmHg 27%
    18:00 +16°C° 0 mm 6 mps 666 mmHg 28%
    19:00 +16°C° 0 mm 6 mps 666 mmHg 29%
    20:00 +15°C° 0 mm 6 mps 667 mmHg 30%
    21:00 +14°C° 0 mm 6 mps 667 mmHg 31%
    22:00 +14°C° 0 mm 6 mps 667 mmHg 32%
    23:00 +13°C° 0 mm 5 mps 666 mmHg 33%
    Show more